When you browse on this site, cookies collect data to enhance your experience and personalize the content and advertising you see.
Visit our Privacy Policy to learn more. By continuing to use the site, you agree to this use of cookies and data.
  • En España
  • Lista de países
  • Para 7 días
  • Temperatura del agua
  • Mapa Satelital
  • El tiempo en el mapa
  • Informadores
  • user-avatar
    Iniciar sesión

    Tiempo cada hora Namibe

    Hoy, 21 Julio, Domingo

    Tiempo Temperatura Precipitaciones Viento Presión Humedad
    00:00 +21°C° 0 mm 1 mps 761 mmHg 87%
    01:00 +20°C° 0 mm 1 mps 761 mmHg 91%
    02:00 +20°C° 0 mm 1 mps 761 mmHg 91%
    03:00 +19°C° 0 mm 1 mps 761 mmHg 92%
    04:00 +19°C° 0 mm 1 mps 761 mmHg 92%
    05:00 +19°C° 0 mm 1 mps 761 mmHg 92%
    06:00 +17°C° 0 mm 0 mps 761 mmHg 92%
    07:00 +17°C° 0 mm 0 mps 761 mmHg 91%
    08:00 +21°C° 0 mm 1 mps 761 mmHg 81%
    09:00 +24°C° 0 mm 1 mps 762 mmHg 71%
    10:00 +26°C° 0 mm 1 mps 762 mmHg 60%
    11:00 +26°C° 0 mm 2 mps 761 mmHg 60%
    12:00 +27°C° 0 mm 3 mps 761 mmHg 59%
    13:00 +27°C° 0 mm 4 mps 760 mmHg 58%
    14:00 +27°C° 0 mm 4 mps 760 mmHg 61%
    15:00 +26°C° 0 mm 4 mps 759 mmHg 63%
    16:00 +25°C° 0 mm 4 mps 759 mmHg 66%
    17:00 +23°C° 0 mm 4 mps 759 mmHg 75%
    18:00 +22°C° 0 mm 4 mps 760 mmHg 83%
    19:00 +20°C° 0 mm 4 mps 760 mmHg 91%
    20:00 +20°C° 0 mm 4 mps 761 mmHg 90%
    21:00 +20°C° 0 mm 4 mps 762 mmHg 89%
    22:00 +20°C° 0 mm 4 mps 762 mmHg 88%
    23:00 +19°C° 0 mm 4 mps 762 mmHg 90%

    Mañana, 22 Julio, Lunes

    Tiempo Temperatura Precipitaciones Viento Presión Humedad
    00:00 +19°C° 0 mm 4 mps 761 mmHg 91%
    01:00 +18°C° 0 mm 4 mps 761 mmHg 92%
    02:00 +18°C° 0 mm 4 mps 761 mmHg 91%
    03:00 +18°C° 0 mm 4 mps 760 mmHg 90%
    04:00 +18°C° 0 mm 4 mps 760 mmHg 90%
    05:00 +18°C° 0 mm 4 mps 760 mmHg 90%
    06:00 +17°C° 0 mm 4 mps 760 mmHg 90%
    07:00 +17°C° 0 mm 4 mps 761 mmHg 91%
    08:00 +19°C° 0 mm 4 mps 761 mmHg 80%
    09:00 +22°C° 0 mm 4 mps 761 mmHg 69%
    10:00 +25°C° 0 mm 4 mps 761 mmHg 58%
    11:00 +26°C° 0 mm 5 mps 760 mmHg 56%
    12:00 +27°C° 0 mm 6 mps 759 mmHg 54%
    13:00 +28°C° 0 mm 6 mps 759 mmHg 52%
    14:00 +27°C° 0 mm 6 mps 758 mmHg 55%
    15:00 +26°C° 0 mm 6 mps 758 mmHg 58%
    16:00 +24°C° 0 mm 7 mps 757 mmHg 61%
    17:00 +22°C° 0 mm 6 mps 758 mmHg 69%
    18:00 +21°C° 0 mm 5 mps 758 mmHg 76%
    19:00 +19°C° 0 mm 4 mps 759 mmHg 84%
    20:00 +18°C° 0 mm 4 mps 759 mmHg 86%
    21:00 +18°C° 0 mm 4 mps 760 mmHg 87%
    22:00 +17°C° 0 mm 4 mps 760 mmHg 89%
    23:00 +17°C° 0 mm 4 mps 760 mmHg 90%

    Pasado mañana, 23 Julio, Martes

    Tiempo Temperatura Precipitaciones Viento Presión Humedad
    00:00 +17°C° 0 mm 4 mps 760 mmHg 91%
    01:00 +15°C° 0 mm 4 mps 759 mmHg 92%
    02:00 +15°C° 0 mm 4 mps 759 mmHg 92%
    03:00 +15°C° 0 mm 4 mps 759 mmHg 92%
    04:00 +15°C° 0 mm 4 mps 759 mmHg 92%
    05:00 +15°C° 0 mm 4 mps 759 mmHg 92%
    06:00 +14°C° 0 mm 4 mps 760 mmHg 92%
    07:00 +14°C° 0 mm 4 mps 760 mmHg 92%
    08:00 +18°C° 0 mm 4 mps 760 mmHg 81%
    09:00 +20°C° 0 mm 4 mps 760 mmHg 70%
    10:00 +22°C° 0 mm 4 mps 761 mmHg 59%
    11:00 +25°C° 0 mm 5 mps 760 mmHg 54%
    12:00 +26°C° 0 mm 5 mps 759 mmHg 49%
    13:00 +28°C° 0 mm 6 mps 759 mmHg 44%
    14:00 +27°C° 0 mm 6 mps 758 mmHg 47%
    15:00 +26°C° 0 mm 6 mps 758 mmHg 51%
    16:00 +24°C° 0 mm 6 mps 757 mmHg 55%
    17:00 +22°C° 0 mm 5 mps 758 mmHg 62%
    18:00 +20°C° 0 mm 5 mps 758 mmHg 70%
    19:00 +18°C° 0 mm 4 mps 759 mmHg 78%
    20:00 +18°C° 0 mm 4 mps 759 mmHg 79%
    21:00 +17°C° 0 mm 3 mps 759 mmHg 81%
    22:00 +16°C° 0 mm 3 mps 759 mmHg 83%
    23:00 +16°C° 0 mm 3 mps 759 mmHg 84%

    24 Julio, Miércoles

    Tiempo Temperatura Precipitaciones Viento Presión Humedad
    00:00 +16°C° 0 mm 3 mps 759 mmHg 85%
    01:00 +14°C° 0 mm 3 mps 758 mmHg 86%
    02:00 +15°C° 0 mm 2 mps 758 mmHg 85%
    03:00 +15°C° 0 mm 2 mps 758 mmHg 85%
    04:00 +15°C° 0 mm 2 mps 757 mmHg 84%
    05:00 +15°C° 0 mm 1 mps 758 mmHg 82%
    06:00 +16°C° 0 mm 1 mps 758 mmHg 79%
    07:00 +16°C° 0 mm 1 mps 758 mmHg 77%
    08:00 +20°C° 0 mm 1 mps 758 mmHg 66%
    09:00 +23°C° 0 mm 2 mps 758 mmHg 55%
    10:00 +26°C° 0 mm 2 mps 759 mmHg 44%
    11:00 +27°C° 0 mm 3 mps 758 mmHg 44%
    12:00 +27°C° 0 mm 3 mps 757 mmHg 43%
    13:00 +28°C° 0 mm 3 mps 757 mmHg 43%
    14:00 +27°C° 0 mm 3 mps 757 mmHg 46%
    15:00 +26°C° 0 mm 3 mps 756 mmHg 49%
    16:00 +26°C° 0 mm 3 mps 756 mmHg 52%
    17:00 +24°C° 0 mm 3 mps 757 mmHg 61%
    18:00 +21°C° 0 mm 3 mps 757 mmHg 71%
    19:00 +19°C° 0 mm 2 mps 758 mmHg 81%
    20:00 +18°C° 0 mm 2 mps 759 mmHg 85%
    21:00 +18°C° 0 mm 2 mps 759 mmHg 88%
    22:00 +18°C° 0 mm 1 mps 759 mmHg 91%
    23:00 +18°C° 0 mm 1 mps 759 mmHg 91%

    25 Julio, Jueves

    Tiempo Temperatura Precipitaciones Viento Presión Humedad
    00:00 +18°C° 0 mm 1 mps 759 mmHg 91%
    01:00 +18°C° 0 mm 1 mps 759 mmHg 90%
    02:00 +18°C° 0 mm 1 mps 759 mmHg 90%
    03:00 +18°C° 0 mm 1 mps 759 mmHg 90%
    04:00 +18°C° 0 mm 1 mps 759 mmHg 90%
    05:00 +18°C° 0 mm 1 mps 759 mmHg 92%
    06:00 +18°C° 0 mm 1 mps 760 mmHg 93%
    07:00 +18°C° 0 mm 1 mps 760 mmHg 94%
    08:00 +20°C° 0 mm 1 mps 760 mmHg 84%
    09:00 +21°C° 0 mm 2 mps 760 mmHg 74%
    10:00 +24°C° 0 mm 2 mps 760 mmHg 64%
    11:00 +25°C° 0 mm 3 mps 760 mmHg 61%
    12:00 +26°C° 0 mm 4 mps 759 mmHg 59%
    13:00 +26°C° 0 mm 4 mps 759 mmHg 57%
    14:00 +25°C° 0 mm 4 mps 759 mmHg 60%
    15:00 +25°C° 0 mm 4 mps 759 mmHg 63%
    16:00 +23°C° 0 mm 4 mps 758 mmHg 66%
    17:00 +21°C° 0 mm 3 mps 759 mmHg 73%
    18:00 +20°C° 0 mm 2 mps 759 mmHg 81%
    19:00 +19°C° 0 mm 1 mps 760 mmHg 89%
    20:00 +18°C° 0 mm 2 mps 760 mmHg 89%
    21:00 +18°C° 0 mm 2 mps 760 mmHg 90%
    22:00 +18°C° 0 mm 2 mps 761 mmHg 90%
    23:00 +17°C° 0 mm 2 mps 760 mmHg 89%

    26 Julio, Viernes

    Tiempo Temperatura Precipitaciones Viento Presión Humedad
    00:00 +17°C° 0 mm 2 mps 760 mmHg 88%
    01:00 +17°C° 0 mm 2 mps 760 mmHg 87%
    02:00 +17°C° 0 mm 2 mps 760 mmHg 87%
    03:00 +16°C° 0 mm 2 mps 760 mmHg 88%
    04:00 +16°C° 0 mm 2 mps 759 mmHg 88%
    05:00 +16°C° 0 mm 2 mps 760 mmHg 89%
    06:00 +16°C° 0 mm 2 mps 760 mmHg 89%
    07:00 +16°C° 0 mm 2 mps 760 mmHg 89%
    08:00 +19°C° 0 mm 2 mps 760 mmHg 78%
    09:00 +21°C° 0 mm 2 mps 760 mmHg 67%
    10:00 +25°C° 0 mm 2 mps 760 mmHg 55%
    11:00 +25°C° 0 mm 3 mps 759 mmHg 54%
    12:00 +26°C° 0 mm 4 mps 759 mmHg 52%
    13:00 +27°C° 0 mm 4 mps 758 mmHg 51%
    14:00 +26°C° 0 mm 4 mps 758 mmHg 54%
    15:00 +25°C° 0 mm 5 mps 757 mmHg 58%
    16:00 +25°C° 0 mm 5 mps 757 mmHg 61%
    17:00 +22°C° 0 mm 4 mps 757 mmHg 70%
    18:00 +20°C° 0 mm 3 mps 757 mmHg 78%
    19:00 +19°C° 0 mm 2 mps 758 mmHg 86%
    20:00 +18°C° 0 mm 2 mps 758 mmHg 88%
    21:00 +18°C° 0 mm 2 mps 759 mmHg 89%
    22:00 +17°C° 0 mm 2 mps 759 mmHg 90%
    23:00 +17°C° 0 mm 2 mps 759 mmHg 89%
    Mostrar más